| time (UTC) | temp F | wind direction | speed MPH | gust MPH | rain 1hr in | rain 24hr in | rain mn in | humidity % | barometer mb |
| 20260509024051 | 59 | 277 | 4.0 | 10.0 | 0.00 | 0.00 | 0.00 | 90 | 1012.6 |
| 20260509023550 | 59 | 261 | 6.0 | 10.0 | 0.00 | 0.00 | 0.00 | 89 | 1012.6 |
| 20260509023051 | 59 | 278 | 5.0 | 10.0 | 0.00 | 0.00 | 0.00 | 89 | 1012.5 |
| 20260509022554 | 59 | 290 | 4.0 | 9.0 | 0.00 | 0.00 | 0.00 | 89 | 1012.5 |
| 20260509022051 | 59 | 256 | 5.0 | 10.0 | 0.00 | 0.00 | 0.00 | 89 | 1012.4 |
| 20260509021552 | 59 | 288 | 6.0 | 13.0 | 0.00 | 0.00 | 0.00 | 89 | 1012.5 |
| 20260509021051 | 60 | 288 | 5.0 | 13.0 | 0.00 | 0.00 | 0.00 | 88 | 1012.5 |
| 20260509020554 | 60 | 310 | 6.0 | 13.0 | 0.00 | 0.00 | 0.00 | 89 | 1012.5 |
| 20260509020055 | 60 | 257 | 3.0 | 10.0 | 0.00 | 0.00 | 0.00 | 89 | 1012.4 |
| 20260509015551 | 60 | 248 | 5.0 | 10.0 | 0.00 | 0.00 | 0.00 | 89 | 1012.4 |
| 20260509015052 | 60 | 262 | 6.0 | 12.0 | 0.00 | 0.00 | 0.00 | 88 | 1012.4 |
| 20260509014553 | 60 | 277 | 7.0 | 12.0 | 0.00 | 0.00 | 0.00 | 88 | 1012.4 |
| 20260509014053 | 60 | 194 | 3.0 | 12.0 | 0.00 | 0.00 | 0.00 | 89 | 1012.5 |
| 20260509013554 | 60 | 279 | 6.0 | 12.0 | 0.00 | 0.00 | 0.00 | 88 | 1012.5 |
| 20260509013056 | 60 | 277 | 8.0 | 12.0 | 0.00 | 0.00 | 0.00 | 87 | 1012.5 |
| 20260509012554 | 60 | 280 | 7.0 | 12.0 | 0.00 | 0.00 | 0.00 | 87 | 1012.6 |
| 20260509012056 | 60 | 229 | 8.0 | 13.0 | 0.00 | 0.00 | 0.00 | 87 | 1012.6 |
| 20260509011601 | 61 | 259 | 7.0 | 13.0 | 0.00 | 0.00 | 0.00 | 87 | 1012.5 |
| 20260509011054 | 61 | 191 | 7.0 | 12.0 | 0.00 | 0.00 | 0.00 | 87 | 1012.5 |
| 20260509010552 | 61 | 246 | 6.0 | 12.0 | 0.00 | 0.00 | 0.00 | 86 | 1012.4 |
| 20260509010054 | 61 | 286 | 6.0 | 13.0 | 0.00 | 0.00 | 0.00 | 87 | 1012.5 |
| 20260509005551 | 62 | 252 | 7.0 | 13.0 | 0.00 | 0.00 | 0.00 | 86 | 1012.5 |
| 20260509005054 | 62 | 265 | 7.0 | 12.0 | 0.00 | 0.00 | 0.00 | 84 | 1012.4 |
| 20260509004615 | 63 | 271 | 6.0 | 12.0 | 0.00 | 0.00 | 0.00 | 84 | 1012.5 |
| 20260509004052 | 63 | 144 | 4.0 | 12.0 | 0.00 | 0.00 | 0.00 | 84 | 1012.4 |
| 20260509003557 | 63 | 255 | 8.0 | 12.0 | 0.00 | 0.00 | 0.00 | 83 | 1012.6 |
| 20260509003054 | 63 | 284 | 5.0 | 15.0 | 0.00 | 0.00 | 0.00 | 82 | 1012.5 |
| 20260509002554 | 64 | 200 | 5.0 | 15.0 | 0.00 | 0.00 | 0.00 | 83 | 1012.4 |
| 20260509002054 | 64 | 196 | 7.0 | 10.0 | 0.00 | 0.00 | 0.00 | 81 | 1012.4 |
| 20260509001556 | 64 | 215 | 6.0 | 12.0 | 0.00 | 0.00 | 0.00 | 82 | 1012.4 |
| 20260509001055 | 65 | 222 | 5.0 | 12.0 | 0.00 | 0.00 | 0.00 | 81 | 1012.5 |
| 20260509000554 | 65 | 194 | 5.0 | 12.0 | 0.00 | 0.00 | 0.00 | 80 | 1012.5 |
| 20260509000055 | 65 | 278 | 5.0 | 10.0 | 0.00 | 0.00 | 0.00 | 81 | 1012.4 |
| 20260508235552 | 65 | 217 | 5.0 | 10.0 | 0.00 | 0.00 | 0.00 | 81 | 1012.5 |
| 20260508235057 | 65 | 239 | 6.0 | 9.0 | 0.00 | 0.00 | 0.00 | 81 | 1012.4 |
| 20260508234553 | 65 | 245 | 4.0 | 13.0 | 0.00 | 0.00 | 0.00 | 81 | 1012.5 |
| 20260508234054 | 65 | 223 | 3.0 | 13.0 | 0.00 | 0.00 | 0.00 | 81 | 1012.5 |
| 20260508233554 | 65 | 294 | 6.0 | 13.0 | 0.00 | 0.00 | 0.00 | 80 | 1012.5 |
| 20260508233052 | 65 | 286 | 4.0 | 12.0 | 0.00 | 0.00 | 0.00 | 81 | 1012.5 |
| 20260508232551 | 65 | 167 | 5.0 | 12.0 | 0.00 | 0.00 | 0.00 | 80 | 1012.5 |
| 20260508232055 | 65 | 246 | 6.0 | 12.0 | 0.00 | 0.00 | 0.00 | 80 | 1012.5 |
| 20260508231557 | 66 | 241 | 5.0 | 12.0 | 0.00 | 0.00 | 0.00 | 79 | 1012.7 |
| 20260508231055 | 66 | 161 | 6.0 | 12.0 | 0.00 | 0.00 | 0.00 | 79 | 1012.7 |
| 20260508230555 | 66 | 240 | 5.0 | 12.0 | 0.00 | 0.00 | 0.00 | 78 | 1012.7 |
| 20260508230053 | 66 | 197 | 4.0 | 13.0 | 0.00 | 0.00 | 0.00 | 79 | 1012.8 |
| 20260508225554 | 66 | 205 | 7.0 | 13.0 | 0.00 | 0.00 | 0.00 | 78 | 1013.0 |
| 20260508225056 | 66 | 242 | 4.0 | 14.0 | 0.00 | 0.00 | 0.00 | 79 | 1013.0 |
| 20260508224557 | 66 | 267 | 3.0 | 14.0 | 0.00 | 0.00 | 0.00 | 79 | 1013.1 |
| 20260508224054 | 67 | 281 | 4.0 | 13.0 | 0.00 | 0.00 | 0.00 | 78 | 1013.1 |
| 20260508223551 | 66 | 176 | 4.0 | 13.0 | 0.00 | 0.00 | 0.00 | 79 | 1013.2 |
| 20260508223055 | 66 | 226 | 6.0 | 13.0 | 0.00 | 0.00 | 0.00 | 79 | 1013.3 |
| 20260508222550 | 66 | 247 | 4.0 | 12.0 | 0.00 | 0.00 | 0.00 | 79 | 1013.3 |
| 20260508222051 | 66 | 215 | 5.0 | 12.0 | 0.00 | 0.00 | 0.00 | 78 | 1013.4 |
| 20260508221554 | 66 | 163 | 7.0 | 14.0 | 0.00 | 0.00 | 0.00 | 79 | 1013.3 |
| 20260508221051 | 66 | 211 | 5.0 | 14.0 | 0.00 | 0.00 | 0.00 | 79 | 1013.4 |
| 20260508220554 | 66 | 265 | 9.0 | 14.0 | 0.00 | 0.00 | 0.00 | 78 | 1013.5 |
| 20260508220056 | 67 | 232 | 5.0 | 12.0 | 0.00 | 0.00 | 0.00 | 78 | 1013.6 |
| 20260508215550 | 66 | 175 | 6.0 | 13.0 | 0.00 | 0.00 | 0.00 | 78 | 1013.6 |
| 20260508215055 | 66 | 241 | 6.0 | 13.0 | 0.00 | 0.00 | 0.00 | 78 | 1013.6 |
| 20260508214604 | 66 | 289 | 6.0 | 13.0 | 0.00 | 0.00 | 0.00 | 78 | 1013.7 |
| 20260508214054 | 67 | 254 | 5.0 | 12.0 | 0.00 | 0.00 | 0.00 | 77 | 1013.7 |
| 20260508213554 | 67 | 277 | 5.0 | 15.0 | 0.00 | 0.00 | 0.00 | 77 | 1013.9 |
| 20260508213056 | 66 | 200 | 8.0 | 15.0 | 0.00 | 0.00 | 0.00 | 77 | 1013.9 |
| 20260508212550 | 67 | 304 | 6.0 | 12.0 | 0.00 | 0.00 | 0.00 | 77 | 1013.8 |
| 20260508212051 | 67 | 140 | 5.0 | 13.0 | 0.00 | 0.00 | 0.00 | 77 | 1013.7 |
| 20260508211555 | 67 | 283 | 5.0 | 13.0 | 0.00 | 0.00 | 0.00 | 77 | 1013.7 |
| 20260508211055 | 67 | 292 | 5.0 | 14.0 | 0.00 | 0.00 | 0.00 | 77 | 1013.8 |
| 20260508210555 | 67 | 309 | 5.0 | 14.0 | 0.00 | 0.00 | 0.00 | 76 | 1013.9 |
| 20260508210059 | 67 | 244 | 5.0 | 11.0 | 0.00 | 0.00 | 0.00 | 76 | 1014.0 |
| 20260508205552 | 67 | 159 | 7.0 | 11.0 | 0.00 | 0.00 | 0.00 | 77 | 1014.0 |
| 20260508205051 | 67 | 267 | 4.0 | 11.0 | 0.00 | 0.00 | 0.00 | 77 | 1014.0 |
| 20260508204633 | 67 | 241 | 6.0 | 13.0 | 0.00 | 0.00 | 0.00 | 77 | 1014.2 |
| 20260508204054 | 67 | 272 | 5.0 | 13.0 | 0.00 | 0.00 | 0.00 | 77 | 1014.1 |
| 20260508203559 | 66 | 303 | 5.0 | 11.0 | 0.00 | 0.00 | 0.00 | 78 | 1014.1 |
| 20260508203054 | 66 | 184 | 4.0 | 13.0 | 0.00 | 0.00 | 0.00 | 78 | 1014.0 |
| 20260508202555 | 66 | 281 | 7.0 | 13.0 | 0.00 | 0.00 | 0.00 | 78 | 1014.1 |
| 20260508202054 | 67 | 228 | 6.0 | 12.0 | 0.00 | 0.00 | 0.00 | 77 | 1014.3 |
| 20260508201554 | 67 | 213 | 5.0 | 10.0 | 0.00 | 0.00 | 0.00 | 76 | 1014.3 |
| 20260508201054 | 67 | 273 | 5.0 | 9.0 | 0.00 | 0.00 | 0.00 | 78 | 1014.3 |
| 20260508200554 | 67 | 159 | 5.0 | 11.0 | 0.00 | 0.00 | 0.00 | 77 | 1014.4 |
| 20260508200053 | 67 | 234 | 5.0 | 11.0 | 0.00 | 0.00 | 0.00 | 76 | 1014.3 |
| 20260508195551 | 67 | 195 | 5.0 | 10.0 | 0.00 | 0.00 | 0.00 | 77 | 1014.3 |
| 20260508195051 | 67 | 223 | 4.0 | 9.0 | 0.00 | 0.00 | 0.00 | 77 | 1014.5 |
| 20260508194556 | 67 | 221 | 4.0 | 11.0 | 0.00 | 0.00 | 0.00 | 78 | 1014.5 |
| 20260508194050 | 67 | 179 | 4.0 | 13.0 | 0.00 | 0.00 | 0.00 | 77 | 1014.5 |
| 20260508193551 | 67 | 252 | 4.0 | 13.0 | 0.00 | 0.00 | 0.00 | 77 | 1014.7 |
| 20260508193105 | 67 | 269 | 4.0 | 12.0 | 0.00 | 0.00 | 0.00 | 77 | 1014.6 |
| 20260508192551 | 67 | 229 | 4.0 | 12.0 | 0.00 | 0.00 | 0.00 | 77 | 1014.6 |
| 20260508192059 | 66 | 170 | 5.0 | 10.0 | 0.00 | 0.00 | 0.00 | 78 | 1014.7 |
| 20260508191603 | 66 | 195 | 5.0 | 10.0 | 0.00 | 0.00 | 0.00 | 77 | 1014.9 |
| 20260508191058 | 66 | 175 | 2.0 | 10.0 | 0.00 | 0.00 | 0.00 | 77 | 1014.7 |
| 20260508190555 | 66 | 274 | 5.0 | 10.0 | 0.00 | 0.00 | 0.00 | 77 | 1014.8 |
| 20260508190110 | 67 | 182 | 4.0 | 8.0 | 0.00 | 0.00 | 0.00 | 77 | 1014.8 |
| 20260508185558 | 66 | 226 | 1.0 | 9.0 | 0.00 | 0.00 | 0.00 | 78 | 1014.8 |
| 20260508185055 | 66 | 210 | 4.0 | 9.0 | 0.00 | 0.00 | 0.00 | 77 | 1015.0 |
| 20260508184603 | 66 | 267 | 3.0 | 7.0 | 0.00 | 0.00 | 0.00 | 77 | 1015.0 |
| 20260508184054 | 66 | 182 | 3.0 | 11.0 | 0.00 | 0.00 | 0.00 | 77 | 1015.0 |
| 20260508183551 | 66 | 217 | 4.0 | 11.0 | 0.00 | 0.00 | 0.00 | 77 | 1015.1 |
| 20260508183112 | 66 | 225 | 2.0 | 7.0 | 0.00 | 0.00 | 0.00 | 77 | 1015.1 |
| 20260508182551 | 66 | 184 | 2.0 | 7.0 | 0.00 | 0.00 | 0.00 | 77 | 1015.0 |
| 20260508182055 | 65 | 189 | 2.0 | 7.0 | 0.00 | 0.00 | 0.00 | 78 | 1015.0 |
| 20260508181603 | 65 | 0 | 2.0 | 6.0 | 0.00 | 0.00 | 0.00 | 78 | 1015.1 |
| 20260508181054 | 65 | 221 | 1.0 | 6.0 | 0.00 | 0.00 | 0.00 | 78 | 1015.2 |
| 20260508180556 | 65 | 0 | 2.0 | 8.0 | 0.00 | 0.00 | 0.00 | 79 | 1015.3 |
| 20260508180116 | 65 | 240 | 2.0 | 8.0 | 0.00 | 0.00 | 0.00 | 78 | 1015.3 |
| 20260508175551 | 65 | 166 | 2.0 | 7.0 | 0.00 | 0.00 | 0.00 | 78 | 1015.3 |
| 20260508175054 | 65 | 0 | 0.0 | 4.0 | 0.00 | 0.00 | 0.00 | 79 | 1015.3 |
| 20260508174611 | 64 | 252 | 0.0 | 5.0 | 0.00 | 0.00 | 0.00 | 80 | 1015.3 |
| 20260508174054 | 64 | 227 | 2.0 | 6.0 | 0.00 | 0.00 | 0.00 | 79 | 1015.3 |
| 20260508173555 | 64 | 167 | 1.0 | 6.0 | 0.00 | 0.00 | 0.00 | 80 | 1015.4 |
| 20260508173054 | 64 | 200 | 1.0 | 6.0 | 0.00 | 0.00 | 0.00 | 80 | 1015.4 |
| 20260508172554 | 64 | 0 | 1.0 | 7.0 | 0.00 | 0.00 | 0.00 | 80 | 1015.4 |
| 20260508172054 | 64 | 73 | 2.0 | 7.0 | 0.00 | 0.00 | 0.00 | 80 | 1015.5 |
| 20260508171554 | 63 | 0 | 2.0 | 7.0 | 0.00 | 0.00 | 0.00 | 81 | 1015.5 |
| 20260508171058 | 63 | 103 | 2.0 | 7.0 | 0.00 | 0.00 | 0.00 | 82 | 1015.5 |
| 20260508170555 | 63 | 0 | 1.0 | 7.0 | 0.00 | 0.00 | 0.00 | 82 | 1015.6 |
| 20260508170106 | 62 | 90 | 3.0 | 7.0 | 0.00 | 0.00 | 0.00 | 82 | 1015.5 |
| 20260508165554 | 63 | 239 | 3.0 | 6.0 | 0.00 | 0.00 | 0.00 | 81 | 1015.4 |
| 20260508165055 | 63 | 104 | 2.0 | 4.0 | 0.00 | 0.00 | 0.00 | 82 | 1015.4 |
| 20260508164557 | 63 | 101 | 0.0 | 3.0 | 0.00 | 0.00 | 0.00 | 82 | 1015.4 |
| 20260508164055 | 62 | 126 | 1.0 | 4.0 | 0.00 | 0.00 | 0.00 | 82 | 1015.4 |
| 20260508163558 | 62 | 103 | 1.0 | 4.0 | 0.00 | 0.00 | 0.00 | 83 | 1015.4 |
| 20260508163054 | 62 | 84 | 0.0 | 4.0 | 0.00 | 0.00 | 0.00 | 83 | 1015.4 |
| 20260508162555 | 62 | 0 | 1.0 | 4.0 | 0.00 | 0.00 | 0.00 | 84 | 1015.3 |
| 20260508162056 | 62 | 0 | 0.0 | 3.0 | 0.00 | 0.00 | 0.00 | 84 | 1015.3 |
| 20260508161605 | 62 | 0 | 1.0 | 3.0 | 0.00 | 0.00 | 0.00 | 84 | 1015.3 |
| 20260508161052 | 61 | 344 | 0.0 | 4.0 | 0.00 | 0.00 | 0.00 | 85 | 1015.3 |
| 20260508160556 | 61 | 0 | 1.0 | 4.0 | 0.00 | 0.00 | 0.00 | 85 | 1015.3 |
| 20260508160055 | 61 | 0 | 1.0 | 4.0 | 0.00 | 0.00 | 0.00 | 85 | 1015.3 |
| 20260508155551 | 61 | 38 | 0.0 | 2.0 | 0.00 | 0.00 | 0.00 | 85 | 1015.3 |
| 20260508155051 | 61 | 338 | 0.0 | 3.0 | 0.00 | 0.00 | 0.00 | 85 | 1015.3 |
| 20260508154553 | 61 | 183 | 1.0 | 3.0 | 0.00 | 0.00 | 0.00 | 86 | 1015.3 |
| 20260508154050 | 61 | 0 | 0.0 | 4.0 | 0.00 | 0.00 | 0.00 | 86 | 1015.3 |
| 20260508153552 | 61 | 291 | 1.0 | 4.0 | 0.00 | 0.00 | 0.00 | 86 | 1015.3 |
| 20260508153058 | 61 | 296 | 0.0 | 4.0 | 0.00 | 0.00 | 0.00 | 86 | 1015.4 |
| 20260508152554 | 61 | 296 | 0.0 | 4.0 | 0.00 | 0.00 | 0.00 | 86 | 1015.3 |
| 20260508152054 | 60 | 0 | 0.0 | 4.0 | 0.00 | 0.00 | 0.00 | 86 | 1015.4 |
| 20260508151555 | 60 | 9 | 2.0 | 4.0 | 0.00 | 0.00 | 0.00 | 86 | 1015.4 |
| 20260508151052 | 60 | 0 | 0.0 | 5.0 | 0.00 | 0.00 | 0.00 | 86 | 1015.4 |
| 20260508150552 | 60 | 0 | 0.0 | 5.0 | 0.00 | 0.00 | 0.00 | 86 | 1015.5 |
| 20260508150056 | 60 | 0 | 0.0 | 5.0 | 0.00 | 0.00 | 0.00 | 86 | 1015.4 |
| 20260508145551 | 60 | 0 | 0.0 | 5.0 | 0.00 | 0.00 | 0.00 | 86 | 1015.4 |
| 20260508145054 | 60 | 88 | 2.0 | 5.0 | 0.00 | 0.00 | 0.00 | 86 | 1015.4 |
| 20260508144557 | 60 | 83 | 0.0 | 4.0 | 0.00 | 0.00 | 0.00 | 86 | 1015.4 |
| 20260508144053 | 60 | 0 | 1.0 | 4.0 | 0.00 | 0.00 | 0.00 | 86 | 1015.5 |
| 20260508143551 | 60 | 0 | 0.0 | 3.0 | 0.00 | 0.00 | 0.00 | 87 | 1015.5 |
| 20260508143102 | 60 | 13 | 1.0 | 4.0 | 0.00 | 0.00 | 0.00 | 86 | 1015.5 |
| 20260508142554 | 60 | 0 | 0.0 | 4.0 | 0.00 | 0.00 | 0.00 | 87 | 1015.4 |
| 20260508142055 | 60 | 145 | 1.0 | 3.0 | 0.00 | 0.00 | 0.00 | 87 | 1015.6 |
| 20260508141605 | 60 | 0 | 0.0 | 6.0 | 0.00 | 0.00 | 0.00 | 87 | 1015.6 |
| 20260508141055 | 60 | 0 | 0.0 | 6.0 | 0.00 | 0.00 | 0.00 | 88 | 1015.4 |
| 20260508140554 | 60 | 103 | 2.0 | 4.0 | 0.00 | 0.00 | 0.00 | 87 | 1015.3 |
| 20260508140057 | 60 | 81 | 0.0 | 2.0 | 0.00 | 0.00 | 0.00 | 88 | 1015.2 |
| 20260508135554 | 60 | 0 | 0.0 | 3.0 | 0.00 | 0.00 | 0.00 | 88 | 1015.2 |
| 20260508135054 | 60 | 0 | 0.0 | 4.0 | 0.00 | 0.00 | 0.00 | 88 | 1015.3 |
| 20260508134559 | 60 | 0 | 0.0 | 4.0 | 0.00 | 0.00 | 0.00 | 88 | 1015.2 |
| 20260508134054 | 60 | 0 | 1.0 | 4.0 | 0.00 | 0.00 | 0.00 | 88 | 1015.3 |
| 20260508133554 | 60 | 0 | 0.0 | 5.0 | 0.00 | 0.00 | 0.00 | 88 | 1015.2 |
| 20260508133101 | 60 | 0 | 2.0 | 5.0 | 0.00 | 0.00 | 0.00 | 88 | 1015.1 |
| 20260508132554 | 60 | 82 | 1.0 | 4.0 | 0.00 | 0.00 | 0.00 | 88 | 1015.1 |
| 20260508132054 | 60 | 0 | 0.0 | 4.0 | 0.00 | 0.00 | 0.00 | 88 | 1015.1 |
| 20260508131608 | 60 | 105 | 1.0 | 4.0 | 0.00 | 0.00 | 0.00 | 88 | 1015.1 |
| 20260508131051 | 60 | 84 | 1.0 | 4.0 | 0.00 | 0.00 | 0.00 | 88 | 1015.2 |
| 20260508130559 | 60 | 0 | 1.0 | 4.0 | 0.00 | 0.00 | 0.00 | 88 | 1014.9 |
| 20260508130058 | 60 | 57 | 0.0 | 4.0 | 0.00 | 0.00 | 0.00 | 88 | 1014.9 |
| 20260508125558 | 60 | 0 | 0.0 | 2.0 | 0.00 | 0.00 | 0.00 | 88 | 1014.8 |
| 20260508125055 | 60 | 0 | 0.0 | 6.0 | 0.00 | 0.00 | 0.00 | 88 | 1014.7 |
| 20260508124557 | 60 | 85 | 0.0 | 6.0 | 0.00 | 0.00 | 0.00 | 89 | 1014.6 |
| 20260508124054 | 60 | 113 | 1.0 | 5.0 | 0.00 | 0.00 | 0.00 | 89 | 1014.7 |
| 20260508123554 | 60 | 79 | 2.0 | 5.0 | 0.00 | 0.00 | 0.00 | 89 | 1014.5 |
| 20260508123113 | 60 | 132 | 2.0 | 5.0 | 0.00 | 0.00 | 0.00 | 89 | 1014.5 |
| 20260508122555 | 60 | 57 | 0.0 | 4.0 | 0.00 | 0.00 | 0.00 | 89 | 1014.5 |
| 20260508122051 | 60 | 61 | 1.0 | 4.0 | 0.00 | 0.00 | 0.00 | 89 | 1014.4 |
| 20260508121607 | 60 | 0 | 0.0 | 4.0 | 0.00 | 0.00 | 0.00 | 89 | 1014.4 |
| 20260508121050 | 60 | 63 | 0.0 | 4.0 | 0.00 | 0.00 | 0.00 | 89 | 1014.4 |
| 20260508120554 | 60 | 69 | 0.0 | 3.0 | 0.00 | 0.00 | 0.00 | 89 | 1014.4 |
| 20260508120107 | 60 | 51 | 0.0 | 3.0 | 0.00 | 0.00 | 0.00 | 89 | 1014.4 |
| 20260508115551 | 60 | 0 | 0.0 | 3.0 | 0.00 | 0.00 | 0.00 | 89 | 1014.4 |
| 20260508115054 | 60 | 86 | 0.0 | 6.0 | 0.00 | 0.00 | 0.00 | 89 | 1014.5 |
| 20260508114600 | 60 | 0 | 1.0 | 6.0 | 0.00 | 0.00 | 0.00 | 89 | 1014.3 |
| 20260508114058 | 60 | 82 | 1.0 | 4.0 | 0.00 | 0.00 | 0.00 | 89 | 1014.3 |
| 20260508113558 | 60 | 99 | 1.0 | 4.0 | 0.00 | 0.00 | 0.00 | 89 | 1014.3 |
| 20260508113111 | 60 | 78 | 0.0 | 3.0 | 0.00 | 0.00 | 0.00 | 89 | 1014.3 |
| 20260508112554 | 59 | 0 | 0.0 | 2.0 | 0.00 | 0.00 | 0.00 | 89 | 1014.3 |
| 20260508112057 | 59 | 0 | 0.0 | 2.0 | 0.00 | 0.00 | 0.00 | 89 | 1014.4 |
| 20260508111553 | 59 | 0 | 0.0 | 2.0 | 0.00 | 0.00 | 0.00 | 89 | 1014.3 |
| 20260508111056 | 59 | 0 | 0.0 | 5.0 | 0.00 | 0.00 | 0.00 | 88 | 1014.3 |
| 20260508110556 | 59 | 51 | 1.0 | 5.0 | 0.00 | 0.00 | 0.00 | 88 | 1014.2 |
| 20260508110107 | 60 | 69 | 3.0 | 5.0 | 0.00 | 0.00 | 0.00 | 88 | 1014.3 |
| 20260508105557 | 60 | 75 | 0.0 | 4.0 | 0.00 | 0.00 | 0.00 | 89 | 1014.2 |
| 20260508105056 | 59 | 0 | 1.0 | 4.0 | 0.00 | 0.00 | 0.00 | 89 | 1014.2 |
| 20260508104557 | 60 | 175 | 0.0 | 4.0 | 0.00 | 0.00 | 0.00 | 89 | 1014.2 |
| 20260508104056 | 59 | 0 | 0.0 | 4.0 | 0.00 | 0.00 | 0.00 | 89 | 1014.3 |
| 20260508103559 | 59 | 0 | 1.0 | 4.0 | 0.00 | 0.00 | 0.00 | 89 | 1014.2 |
| 20260508103102 | 59 | 72 | 0.0 | 4.0 | 0.00 | 0.00 | 0.00 | 89 | 1014.2 |
| 20260508102556 | 59 | 0 | 0.0 | 4.0 | 0.00 | 0.00 | 0.00 | 89 | 1014.2 |
| 20260508102056 | 59 | 80 | 1.0 | 3.0 | 0.00 | 0.00 | 0.00 | 89 | 1014.2 |
| 20260508101556 | 59 | 0 | 1.0 | 3.0 | 0.00 | 0.00 | 0.00 | 89 | 1014.3 |
| 20260508101056 | 59 | 0 | 0.0 | 2.0 | 0.00 | 0.00 | 0.00 | 89 | 1014.3 |
| 20260508100556 | 59 | 51 | 0.0 | 3.0 | 0.00 | 0.00 | 0.00 | 89 | 1014.2 |
| 20260508100055 | 59 | 0 | 1.0 | 3.0 | 0.00 | 0.00 | 0.00 | 89 | 1014.3 |
| 20260508095557 | 59 | 0 | 0.0 | 3.0 | 0.00 | 0.00 | 0.00 | 89 | 1014.2 |
| 20260508095057 | 59 | 57 | 1.0 | 3.0 | 0.00 | 0.00 | 0.00 | 89 | 1014.3 |
| 20260508094557 | 59 | 61 | 1.0 | 3.0 | 0.00 | 0.00 | 0.00 | 89 | 1014.4 |
| 20260508094056 | 59 | 0 | 0.0 | 3.0 | 0.00 | 0.00 | 0.00 | 89 | 1014.4 |
| 20260508093556 | 59 | 51 | 1.0 | 3.0 | 0.00 | 0.00 | 0.00 | 89 | 1014.4 |
| 20260508093105 | 59 | 0 | 0.0 | 2.0 | 0.00 | 0.00 | 0.00 | 89 | 1014.4 |
| 20260508092556 | 59 | 0 | 0.0 | 2.0 | 0.00 | 0.00 | 0.00 | 89 | 1014.4 |
| 20260508092056 | 59 | 0 | 0.0 | 3.0 | 0.00 | 0.00 | 0.00 | 89 | 1014.4 |
| 20260508091556 | 59 | 0 | 0.0 | 3.0 | 0.00 | 0.00 | 0.00 | 89 | 1014.5 |
| 20260508091057 | 59 | 0 | 0.0 | 3.0 | 0.00 | 0.00 | 0.00 | 89 | 1014.5 |
| 20260508090557 | 59 | 0 | 0.0 | 2.0 | 0.00 | 0.00 | 0.00 | 89 | 1014.6 |
| 20260508090106 | 59 | 324 | 0.0 | 0.0 | 0.00 | 0.00 | 0.00 | 89 | 1014.5 |
| 20260508085556 | 59 | 0 | 0.0 | 3.0 | 0.00 | 0.00 | 0.00 | 89 | 1014.5 |
| 20260508085056 | 59 | 0 | 0.0 | 3.0 | 0.00 | 0.00 | 0.00 | 89 | 1014.5 |
| 20260508084559 | 59 | 0 | 1.0 | 3.0 | 0.00 | 0.00 | 0.00 | 89 | 1014.6 |
| 20260508084059 | 59 | 0 | 0.0 | 3.0 | 0.00 | 0.00 | 0.00 | 89 | 1014.6 |
| 20260508083557 | 59 | 0 | 0.0 | 3.0 | 0.00 | 0.00 | 0.00 | 89 | 1014.6 |
| 20260508083104 | 59 | 282 | 1.0 | 3.0 | 0.00 | 0.00 | 0.00 | 89 | 1014.7 |
| 20260508082557 | 59 | 281 | 0.0 | 2.0 | 0.00 | 0.00 | 0.00 | 89 | 1014.7 |
| 20260508082100 | 59 | 0 | 0.0 | 4.0 | 0.00 | 0.00 | 0.00 | 89 | 1014.7 |
| 20260508081602 | 59 | 273 | 1.0 | 4.0 | 0.00 | 0.00 | 0.00 | 89 | 1014.8 |
| 20260508081056 | 60 | 271 | 0.0 | 4.0 | 0.00 | 0.00 | 0.00 | 89 | 1014.9 |
| 20260508080556 | 60 | 0 | 1.0 | 4.0 | 0.00 | 0.00 | 0.00 | 88 | 1014.9 |
| 20260508080056 | 60 | 290 | 2.0 | 4.0 | 0.00 | 0.00 | 0.00 | 88 | 1014.9 |
| 20260508075556 | 60 | 275 | 1.0 | 3.0 | 0.00 | 0.00 | 0.00 | 88 | 1015.1 |
| 20260508075056 | 60 | 306 | 0.0 | 3.0 | 0.00 | 0.00 | 0.00 | 88 | 1015.1 |
| 20260508074556 | 60 | 0 | 0.0 | 2.0 | 0.00 | 0.00 | 0.00 | 88 | 1015.0 |
| 20260508074058 | 60 | 0 | 0.0 | 4.0 | 0.00 | 0.00 | 0.00 | 88 | 1015.0 |
| 20260508073556 | 60 | 85 | 0.0 | 4.0 | 0.00 | 0.00 | 0.00 | 89 | 1015.1 |
| 20260508073102 | 60 | 0 | 0.0 | 4.0 | 0.00 | 0.00 | 0.00 | 89 | 1015.1 |
| 20260508072556 | 60 | 131 | 1.0 | 4.0 | 0.00 | 0.00 | 0.00 | 89 | 1015.1 |
| 20260508072056 | 60 | 74 | 1.0 | 3.0 | 0.00 | 0.00 | 0.00 | 89 | 1015.1 |
| 20260508071555 | 60 | 70 | 0.0 | 4.0 | 0.00 | 0.00 | 0.00 | 89 | 1015.1 |
| 20260508071055 | 60 | 72 | 1.0 | 4.0 | 0.00 | 0.00 | 0.00 | 88 | 1015.0 |
| 20260508070600 | 60 | 68 | 1.0 | 3.0 | 0.00 | 0.00 | 0.00 | 88 | 1015.0 |
| 20260508070057 | 60 | 78 | 0.0 | 4.0 | 0.00 | 0.00 | 0.00 | 89 | 1015.0 |
| 20260508065557 | 59 | 193 | 0.0 | 4.0 | 0.00 | 0.00 | 0.00 | 89 | 1015.0 |
| 20260508065059 | 59 | 49 | 2.0 | 4.0 | 0.00 | 0.00 | 0.00 | 88 | 1014.9 |
| 20260508064608 | 59 | 98 | 0.0 | 4.0 | 0.00 | 0.00 | 0.00 | 89 | 1014.9 |
| 20260508064057 | 59 | 78 | 0.0 | 2.0 | 0.00 | 0.00 | 0.00 | 89 | 1015.0 |
| 20260508063557 | 59 | 0 | 0.0 | 2.0 | 0.00 | 0.00 | 0.00 | 89 | 1015.0 |
| 20260508063104 | 59 | 0 | 0.0 | 0.0 | 0.00 | 0.00 | 0.00 | 89 | 1015.0 |
| 20260508062600 | 59 | 0 | 0.0 | 2.0 | 0.00 | 0.00 | 0.00 | 89 | 1014.9 |
| 20260508062057 | 59 | 0 | 0.0 | 5.0 | 0.00 | 0.00 | 0.00 | 88 | 1014.9 |
| 20260508061559 | 59 | 0 | 0.0 | 7.0 | 0.00 | 0.00 | 0.00 | 88 | 1014.7 |
| 20260508061057 | 59 | 0 | 1.0 | 7.0 | 0.00 | 0.00 | 0.00 | 88 | 1014.8 |
| 20260508060558 | 60 | 170 | 2.0 | 6.0 | 0.00 | 0.00 | 0.00 | 88 | 1014.7 |
| 20260508055557 | 60 | 173 | 1.0 | 4.0 | 0.00 | 0.00 | 0.00 | 88 | 1014.7 |
| 20260508055056 | 60 | 103 | 0.0 | 3.0 | 0.00 | 0.00 | 0.00 | 88 | 1014.7 |
| 20260508054556 | 60 | 0 | 0.0 | 4.0 | 0.00 | 0.00 | 0.00 | 88 | 1014.8 |
| 20260508054056 | 60 | 0 | 2.0 | 6.0 | 0.00 | 0.00 | 0.00 | 87 | 1014.9 |
| 20260508053557 | 60 | 176 | 1.0 | 6.0 | 0.00 | 0.00 | 0.00 | 88 | 1014.9 |
| 20260508053107 | 60 | 170 | 0.0 | 5.0 | 0.00 | 0.00 | 0.00 | 88 | 1014.9 |
| 20260508052556 | 60 | 269 | 1.0 | 5.0 | 0.00 | 0.00 | 0.00 | 88 | 1014.8 |
| 20260508052058 | 60 | 0 | 0.0 | 4.0 | 0.00 | 0.00 | 0.00 | 89 | 1014.8 |
| 20260508051556 | 60 | 279 | 1.0 | 4.0 | 0.00 | 0.00 | 0.00 | 89 | 1014.8 |
| 20260508051057 | 59 | 251 | 0.0 | 4.0 | 0.00 | 0.00 | 0.00 | 89 | 1014.8 |
| 20260508050557 | 59 | 0 | 0.0 | 4.0 | 0.00 | 0.00 | 0.00 | 89 | 1014.8 |
| 20260508050055 | 59 | 198 | 0.0 | 4.0 | 0.00 | 0.00 | 0.00 | 89 | 1014.8 |
| 20260508045556 | 59 | 289 | 1.0 | 5.0 | 0.00 | 0.00 | 0.00 | 88 | 1014.7 |
| 20260508045055 | 59 | 0 | 1.0 | 5.0 | 0.00 | 0.00 | 0.00 | 89 | 1014.7 |
| 20260508044554 | 59 | 0 | 1.0 | 4.0 | 0.00 | 0.00 | 0.00 | 89 | 1014.6 |
| 20260508044056 | 59 | 277 | 1.0 | 4.0 | 0.00 | 0.00 | 0.00 | 89 | 1014.5 |
| 20260508043554 | 59 | 0 | 0.0 | 4.0 | 0.00 | 0.00 | 0.00 | 88 | 1014.4 |
| 20260508043100 | 59 | 213 | 1.0 | 4.0 | 0.00 | 0.00 | 0.00 | 88 | 1014.4 |
| 20260508042554 | 59 | 0 | 0.0 | 4.0 | 0.00 | 0.00 | 0.00 | 88 | 1014.4 |
| 20260508042054 | 59 | 0 | 0.0 | 5.0 | 0.00 | 0.00 | 0.00 | 88 | 1014.4 |
| 20260508041601 | 59 | 279 | 1.0 | 5.0 | 0.00 | 0.00 | 0.00 | 88 | 1014.2 |
| 20260508041055 | 59 | 269 | 2.0 | 5.0 | 0.00 | 0.00 | 0.00 | 87 | 1014.2 |
| 20260508040551 | 59 | 281 | 1.0 | 5.0 | 0.00 | 0.00 | 0.00 | 87 | 1014.1 |
| 20260508040100 | 59 | 273 | 2.0 | 7.0 | 0.00 | 0.00 | 0.00 | 87 | 1014.0 |
| 20260508035555 | 59 | 224 | 1.0 | 7.0 | 0.00 | 0.00 | 0.00 | 87 | 1014.2 |
| 20260508035051 | 59 | 207 | 3.0 | 7.0 | 0.00 | 0.00 | 0.00 | 87 | 1014.0 |
| 20260508034612 | 59 | 140 | 1.0 | 6.0 | 0.00 | 0.00 | 0.00 | 87 | 1013.9 |
| 20260508034056 | 59 | 200 | 3.0 | 6.0 | 0.00 | 0.00 | 0.00 | 87 | 1013.9 |
| 20260508033554 | 59 | 269 | 1.0 | 4.0 | 0.00 | 0.00 | 0.00 | 88 | 1013.8 |
| 20260508033057 | 59 | 275 | 1.0 | 4.0 | 0.00 | 0.00 | 0.00 | 88 | 1013.7 |
| 20260508032555 | 60 | 252 | 1.0 | 3.0 | 0.00 | 0.00 | 0.00 | 88 | 1013.7 |
| 20260508032055 | 60 | 0 | 0.0 | 3.0 | 0.00 | 0.00 | 0.00 | 88 | 1013.7 |
| 20260508031556 | 60 | 286 | 0.0 | 4.0 | 0.00 | 0.00 | 0.00 | 88 | 1013.6 |
| 20260508031055 | 60 | 223 | 0.0 | 5.0 | 0.00 | 0.00 | 0.00 | 88 | 1013.6 |
| 20260508030555 | 60 | 225 | 2.0 | 5.0 | 0.00 | 0.00 | 0.00 | 88 | 1013.6 |
| 20260508030103 | 60 | 0 | 3.0 | 8.0 | 0.00 | 0.00 | 0.00 | 87 | 1013.4 |
| 20260508025555 | 60 | 315 | 3.0 | 8.0 | 0.00 | 0.00 | 0.00 | 87 | 1013.4 |
| 20260508025054 | 60 | 238 | 3.0 | 8.0 | 0.00 | 0.00 | 0.00 | 87 | 1013.4 |
| 20260508024558 | 60 | 208 | 4.0 | 8.0 | 0.00 | 0.00 | 0.00 | 86 | 1013.4 |